2016-07-25 00:00:40 r, 18.64m,0000000003Hz,0000149074c,0000000.324s, 034.8C,00002195
2016-07-25 00:10:40 r, 18.61m,0000000004Hz,0000145904c,0000000.317s, 034.4C,00002195
2016-07-25 00:20:42 r, 18.59m,0000000004Hz,0000142971c,0000000.310s, 034.4C,00002195
2016-07-25 00:30:40 r, 18.59m,0000000003Hz,0000142873c,0000000.310s, 034.4C,00002195
2016-07-25 00:40:40 r, 18.55m,0000000003Hz,0000138061c,0000000.300s, 034.1C,00002195
2016-07-25 00:50:40 r, 18.57m,0000000003Hz,0000140035c,0000000.304s, 034.1C,00002195
2016-07-25 01:00:40 r, 18.56m,0000000004Hz,0000139013c,0000000.302s, 034.1C,00002195
2016-07-25 01:10:40 r, 18.56m,0000000003Hz,0000138984c,0000000.302s, 034.1C,00002195
2016-07-25 01:20:40 r, 18.55m,0000000003Hz,0000138149c,0000000.300s, 034.1C,00002195
2016-07-25 01:30:40 r, 18.54m,0000000003Hz,0000136536c,0000000.296s, 034.1C,00002195
2016-07-25 01:40:40 r, 18.55m,0000000004Hz,0000137234c,0000000.298s, 034.1C,00002195
2016-07-25 01:50:40 r, 18.54m,0000000003Hz,0000136039c,0000000.295s, 034.1C,00002195
2016-07-25 02:00:40 r, 18.58m,0000000003Hz,0000140333c,0000000.305s, 033.8C,00002195
2016-07-25 02:10:40 r, 18.53m,0000000003Hz,0000135067c,0000000.293s, 033.8C,00002195
2016-07-25 02:20:40 r, 18.52m,0000000004Hz,0000132221c,0000000.287s, 033.8C,00002195
2016-07-25 02:30:40 r, 18.50m,0000000004Hz,0000130543c,0000000.283s, 033.8C,00002195
2016-07-25 02:40:41 r, 18.50m,0000000003Hz,0000130330c,0000000.283s, 033.8C,00002195
2016-07-25 02:50:40 r, 18.49m,0000000003Hz,0000128949c,0000000.280s, 033.8C,00002195
2016-07-25 03:00:40 r, 18.47m,0000000004Hz,0000127604c,0000000.277s, 033.8C,00002195
2016-07-25 03:10:40 r, 18.46m,0000000004Hz,0000125911c,0000000.273s, 033.8C,00002195
2016-07-25 03:20:40 r, 18.46m,0000000003Hz,0000126028c,0000000.273s, 033.8C,00002195
2016-07-25 03:30:41 r, 18.45m,0000000004Hz,0000124169c,0000000.269s, 033.5C,00002195
2016-07-25 03:40:40 r, 18.43m,0000000003Hz,0000121881c,0000000.264s, 033.5C,00002195
2016-07-25 03:50:40 r, 18.39m,0000000004Hz,0000118134c,0000000.256s, 033.5C,00002195
2016-07-25 04:00:42 r, 18.35m,0000000004Hz,0000112690c,0000000.245s, 033.5C,00002195
2016-07-25 04:10:40 r, 18.24m,0000000005Hz,0000102667c,0000000.223s, 033.1C,00002195
2016-07-25 04:20:40 r, 18.02m,0000000006Hz,0000084426c,0000000.183s, 033.1C,00002195
2016-07-25 04:30:41 r, 17.65m,0000000007Hz,0000059704c,0000000.130s, 032.8C,00002195
2016-07-25 04:40:40 r, 17.01m,0000000014Hz,0000033410c,0000000.073s, 032.8C,00002195
2016-07-25 04:50:41 r, 16.09m,0000000033Hz,0000014189c,0000000.031s, 032.5C,00002195
2016-07-25 05:00:40 r, 14.71m,0000000114Hz,0000003986c,0000000.009s, 032.5C,00002195
2016-07-25 05:10:40 r, 13.04m,0000000543Hz,0000000000c,0000000.000s, 032.2C,00002195
2016-07-25 05:20:43 r, 11.37m,0000002538Hz,0000000000c,0000000.000s, 032.2C,00002195
2016-07-25 05:30:41 r, 09.81m,0000010595Hz,0000000000c,0000000.000s, 032.2C,00002195
2016-07-25 05:40:43 r, 08.53m,0000034489Hz,0000000000c,0000000.000s, 032.2C,00002195
2016-07-25 05:50:40 r, 07.57m,0000083820Hz,0000000000c,0000000.000s, 031.9C,00002195
2016-07-25 06:00:41 r, 06.87m,0000159348Hz,0000000000c,0000000.000s, 031.9C,00002195
2016-07-25 06:10:40 r, 06.37m,0000252704Hz,0000000000c,0000000.000s, 031.9C,00002195
2016-07-25 06:20:41 r, 06.01m,0000351330Hz,0000000000c,0000000.000s, 031.9C,00002195
2016-07-25 06:30:43 r, 00.00m,0000445511Hz,0000000000c,0000000.000s, 031.9C,00002195
2016-07-25 06:40:40 r, 00.00m,0000531328Hz,0000000000c,0000000.000s, 031.9C,00002195
2016-07-25 06:50:40 r, 00.00m,0000564395Hz,0000000000c,0000000.000s, 031.9C,00002195
2016-07-25 07:00:40 r, 00.00m,0000564384Hz,0000000000c,0000000.000s, 032.2C,00002195
2016-07-25 07:10:40 r, 00.00m,0000564483Hz,0000000000c,0000000.000s, 032.5C,00002195
2016-07-25 07:20:40 r, 00.00m,0000564513Hz,0000000000c,0000000.000s, 032.5C,00002195
2016-07-25 07:30:41 r, 00.00m,0000564472Hz,0000000000c,0000000.000s, 032.8C,00002195
2016-07-25 07:40:43 r, 00.00m,0000564414Hz,0000000000c,0000000.000s, 032.8C,00002195
2016-07-25 07:50:40 r, 00.00m,0000564496Hz,0000000000c,0000000.000s, 033.5C,00002195
2016-07-25 08:00:41 r, 00.00m,0000564575Hz,0000000000c,0000000.000s, 033.5C,00002195
2016-07-25 08:10:40 r, 00.00m,0000564556Hz,0000000000c,0000000.000s, 033.8C,00002195
2016-07-25 08:20:41 r, 00.00m,0000564605Hz,0000000000c,0000000.000s, 033.8C,00002195
2016-07-25 08:30:41 r, 00.00m,0000564759Hz,0000000000c,0000000.000s, 034.4C,00002195
2016-07-25 08:40:40 r, 00.00m,0000564696Hz,0000000000c,0000000.000s, 034.8C,00002195
2016-07-25 08:50:40 r, 00.00m,0000564660Hz,0000000000c,0000000.000s, 035.1C,00002195
2016-07-25 09:00:40 r, 00.00m,0000564716Hz,0000000000c,0000000.000s, 035.7C,00002195
2016-07-25 09:10:40 r, 00.00m,0000564883Hz,0000000000c,0000000.000s, 036.4C,00002195
2016-07-25 09:20:40 r, 00.00m,0000565219Hz,0000000000c,0000000.000s, 039.6C,00002195
2016-07-25 09:30:40 r, 00.00m,0000565503Hz,0000000000c,0000000.000s, 042.8C,00002195
2016-07-25 09:40:40 r, 00.00m,0000565683Hz,0000000000c,0000000.000s, 045.1C,00002195
2016-07-25 09:50:40 r, 00.00m,0000565764Hz,0000000000c,0000000.000s, 046.7C,00002195
2016-07-25 10:00:40 r, 00.00m,0000565825Hz,0000000000c,0000000.000s, 048.3C,00002195
2016-07-25 10:10:40 r, 00.00m,0000565901Hz,0000000000c,0000000.000s, 049.3C,00002195
2016-07-25 10:20:42 r, 00.00m,0000565967Hz,0000000000c,0000000.000s, 049.9C,00002195
2016-07-25 10:30:40 r, 00.00m,0000565991Hz,0000000000c,0000000.000s, 050.6C,00002195
2016-07-25 10:40:40 r, 00.00m,0000566042Hz,0000000000c,0000000.000s, 051.5C,00002195
2016-07-25 10:50:40 r, 00.00m,0000566062Hz,0000000000c,0000000.000s, 052.2C,00002195
2016-07-25 11:00:41 r, 00.00m,0000566161Hz,0000000000c,0000000.000s, 053.1C,00002195
2016-07-25 11:10:40 r, 00.00m,0000566185Hz,0000000000c,0000000.000s, 054.1C,00002195
2016-07-25 11:20:41 r, 00.00m,0000566209Hz,0000000000c,0000000.000s, 054.7C,00002195
2016-07-25 11:30:41 r, 00.00m,0000566147Hz,0000000000c,0000000.000s, 054.7C,00002195
2016-07-25 11:40:40 r, 00.00m,0000566162Hz,0000000000c,0000000.000s, 055.1C,00002195
2016-07-25 11:50:43 r, 00.00m,0000566247Hz,0000000000c,0000000.000s, 055.4C,00002195
2016-07-25 12:00:41 r, 00.00m,0000566133Hz,0000000000c,0000000.000s, 055.4C,00002195
2016-07-25 12:10:40 r, 00.00m,0000566241Hz,0000000000c,0000000.000s, 056.0C,00002195
2016-07-25 12:20:41 r, 00.00m,0000566175Hz,0000000000c,0000000.000s, 056.4C,00002195
2016-07-25 12:30:41 r, 00.00m,0000566190Hz,0000000000c,0000000.000s, 056.7C,00002195
2016-07-25 12:40:40 r, 00.00m,0000566197Hz,0000000000c,0000000.000s, 057.0C,00002195
2016-07-25 12:50:40 r, 00.00m,0000566203Hz,0000000000c,0000000.000s, 057.3C,00002195
2016-07-25 13:00:41 r, 00.00m,0000566149Hz,0000000000c,0000000.000s, 057.6C,00002195
2016-07-25 13:10:40 r, 00.00m,0000566304Hz,0000000000c,0000000.000s, 058.0C,00002195
2016-07-25 13:20:40 r, 00.00m,0000566306Hz,0000000000c,0000000.000s, 058.0C,00002195
2016-07-25 13:30:40 r, 00.00m,0000566196Hz,0000000000c,0000000.000s, 058.3C,00002195
2016-07-25 13:40:40 r, 00.00m,0000566220Hz,0000000000c,0000000.000s, 058.3C,00002195
2016-07-25 13:50:40 r, 00.00m,0000566279Hz,0000000000c,0000000.000s, 058.9C,00002195
2016-07-25 14:00:40 r, 00.00m,0000566170Hz,0000000000c,0000000.000s, 059.3C,00002195
2016-07-25 14:10:40 r, 00.00m,0000566172Hz,0000000000c,0000000.000s, 059.6C,00002195
2016-07-25 14:20:40 r, 00.00m,0000566269Hz,0000000000c,0000000.000s, 059.6C,00002195
2016-07-25 14:30:40 r, 00.00m,0000566240Hz,0000000000c,0000000.000s, 059.9C,00002195
2016-07-25 14:40:40 r, 00.00m,0000566173Hz,0000000000c,0000000.000s, 059.9C,00002195
2016-07-25 14:50:41 r, 00.00m,0000566211Hz,0000000000c,0000000.000s, 059.9C,00002195
2016-07-25 15:00:40 r, 00.00m,0000566146Hz,0000000000c,0000000.000s, 060.5C,00002195
2016-07-25 15:10:40 r, 00.00m,0000566120Hz,0000000000c,0000000.000s, 060.2C,00002195
2016-07-25 15:20:40 r, 00.00m,0000566183Hz,0000000000c,0000000.000s, 060.2C,00002195
2016-07-25 15:30:40 r, 00.00m,0000566107Hz,0000000000c,0000000.000s, 060.2C,00002195
2016-07-25 15:40:40 r, 00.00m,0000566165Hz,0000000000c,0000000.000s, 060.2C,00002195
2016-07-25 15:50:40 r, 00.00m,0000566108Hz,0000000000c,0000000.000s, 059.9C,00002195
2016-07-25 16:00:40 r, 00.00m,0000566114Hz,0000000000c,0000000.000s, 059.9C,00002195
2016-07-25 16:10:40 r, 00.00m,0000566124Hz,0000000000c,0000000.000s, 059.9C,00002195
2016-07-25 16:20:40 r, 00.00m,0000566057Hz,0000000000c,0000000.000s, 059.6C,00002195
2016-07-25 16:30:43 r, 00.00m,0000566048Hz,0000000000c,0000000.000s, 059.3C,00002195
2016-07-25 16:40:41 r, 00.00m,0000566068Hz,0000000000c,0000000.000s, 058.6C,00002195
2016-07-25 16:50:41 r, 00.00m,0000565936Hz,0000000000c,0000000.000s, 058.3C,00002195
2016-07-25 17:00:41 r, 00.00m,0000566006Hz,0000000000c,0000000.000s, 058.0C,00002195
2016-07-25 17:10:40 r, 00.00m,0000566000Hz,0000000000c,0000000.000s, 057.6C,00002195
2016-07-25 17:20:41 r, 00.00m,0000565864Hz,0000000000c,0000000.000s, 057.6C,00002195
2016-07-25 17:30:42 r, 00.00m,0000565883Hz,0000000000c,0000000.000s, 056.7C,00002195
2016-07-25 17:40:40 r, 00.00m,0000565899Hz,0000000000c,0000000.000s, 056.7C,00002195
2016-07-25 17:50:40 r, 00.00m,0000565865Hz,0000000000c,0000000.000s, 056.0C,00002195
2016-07-25 18:00:41 r, 00.00m,0000565756Hz,0000000000c,0000000.000s, 055.4C,00002195
2016-07-25 18:10:40 r, 00.00m,0000565794Hz,0000000000c,0000000.000s, 055.1C,00002195
2016-07-25 18:20:41 r, 00.00m,0000565753Hz,0000000000c,0000000.000s, 054.4C,00002195
2016-07-25 18:30:40 r, 00.00m,0000565724Hz,0000000000c,0000000.000s, 054.1C,00002195
2016-07-25 18:40:40 r, 00.00m,0000565623Hz,0000000000c,0000000.000s, 053.5C,00002195
2016-07-25 18:50:40 r, 00.00m,0000565668Hz,0000000000c,0000000.000s, 052.8C,00002195
2016-07-25 19:00:41 r, 00.00m,0000565554Hz,0000000000c,0000000.000s, 052.2C,00002195
2016-07-25 19:10:40 r, 00.00m,0000565577Hz,0000000000c,0000000.000s, 051.5C,00002195
2016-07-25 19:20:41 r, 00.00m,0000565495Hz,0000000000c,0000000.000s, 050.9C,00002195
2016-07-25 19:30:41 r, 00.00m,0000565475Hz,0000000000c,0000000.000s, 050.2C,00002195
2016-07-25 19:40:41 r, 00.00m,0000565346Hz,0000000000c,0000000.000s, 049.6C,00002195
2016-07-25 19:52:22 r, 00.00m,0000565231Hz,0000000000c,0000000.000s, 048.3C,00002195
2016-07-25 20:02:22 r, 00.00m,0000565244Hz,0000000000c,0000000.000s, 048.0C,00002195
2016-07-25 20:12:21 r, 00.00m,0000565261Hz,0000000000c,0000000.000s, 047.0C,00002195
2016-07-25 20:22:21 r, 00.00m,0000565180Hz,0000000000c,0000000.000s, 046.0C,00002195
2016-07-25 20:32:21 r, 00.00m,0000492498Hz,0000000000c,0000000.000s, 045.1C,00002195
2016-07-25 20:42:22 r, 00.00m,0000401302Hz,0000000000c,0000000.000s, 044.1C,00002195
2016-07-25 20:52:21 r, 06.16m,0000307127Hz,0000000000c,0000000.000s, 044.1C,00002195
2016-07-25 21:02:22 r, 06.56m,0000211242Hz,0000000000c,0000000.000s, 042.8C,00002195
2016-07-25 21:12:22 r, 07.14m,0000124508Hz,0000000000c,0000000.000s, 042.2C,00002195
2016-07-25 21:22:22 r, 07.93m,0000059831Hz,0000000000c,0000000.000s, 041.9C,00002195
2016-07-25 21:32:21 r, 09.02m,0000021925Hz,0000000000c,0000000.000s, 041.2C,00002195
2016-07-25 21:42:21 r, 10.41m,0000006081Hz,0000000000c,0000000.000s, 040.9C,00002195
2016-07-25 21:52:22 r, 12.05m,0000001351Hz,0000000000c,0000000.000s, 040.6C,00002195
2016-07-25 22:02:23 r, 13.76m,0000000278Hz,0000000000c,0000000.000s, 040.2C,00002195
2016-07-25 22:12:21 r, 15.32m,0000000065Hz,0000007033c,0000000.015s, 039.9C,00002195
2016-07-25 22:22:22 r, 16.52m,0000000022Hz,0000021171c,0000000.046s, 039.6C,00002195
2016-07-25 22:32:23 r, 17.40m,0000000010Hz,0000047598c,0000000.103s, 039.6C,00002195
2016-07-25 22:42:22 r, 17.96m,0000000006Hz,0000079912c,0000000.173s, 039.3C,00002195
2016-07-25 22:52:21 r, 18.29m,0000000004Hz,0000108500c,0000000.235s, 039.0C,00002195
2016-07-25 23:02:21 r, 18.46m,0000000004Hz,0000125962c,0000000.273s, 039.0C,00002195
2016-07-25 23:12:22 r, 18.55m,0000000004Hz,0000138223c,0000000.300s, 038.6C,00002195
2016-07-25 23:22:21 r, 18.59m,0000000003Hz,0000142165c,0000000.309s, 038.3C,00002195
2016-07-25 23:32:21 r, 18.62m,0000000003Hz,0000145707c,0000000.316s, 038.3C,00002195
2016-07-25 23:42:21 r, 18.63m,0000000003Hz,0000146818c,0000000.319s, 038.3C,00002195
2016-07-25 23:52:21 r, 18.63m,0000000003Hz,0000146927c,0000000.319s, 038.0C,00002195
